Whiteville, NC

1:01 PM EDT on May 21, 2018 (GMT -0400)
Columbus County Municipal

Weather History for KCPC - January, 2013

Change the Weather History Date:

Friday, January 11, 2013

  Actual Average (WUND) Record (WUND)
Temperature  
Mean Temperature 62 °F -  
Max Temperature 73 °F - - (-1)
Min Temperature 51 °F - - (-1)
Degree Days  
Heating Degree Days 4    
Growing Degree Days 12 (Base 50)    
Moisture  
Dew Point 54 °F    
Average Humidity 84    
Maximum Humidity 99    
Minimum Humidity 50    
Precipitation  
Precipitation 0.00 in - - ()
Sea Level Pressure  
Sea Level Pressure 30.26 in    
Wind  
Wind Speed 4 mph (East)    
Max Wind Speed 10 mph    
Max Gust Speed -    
Visibility 9 miles    
Events Fog , Rain    
Averages and records for this station are not official NWS values.
T = Trace of Precipitation, MM = Missing Value Source: NWS Daily Summary

Daily Weather History Graph

Daily Weather History Graph

Search for Another Location

Airport or City:

Astronomy

Jan. 11, 2013 Rise Set
Actual Time 7:21 AM EST 5:24 PM EST
Civil Twilight 6:54 AM EST 5:52 PM EST
Nautical Twilight 6:23 AM EST 6:23 PM EST
Astronomical Twilight 5:52 AM EST 6:53 PM EST
Moon 6:54 AM EST (1/11) 5:37 PM EST (1/11)
Length of Visible Light 10h 58m
Length of Day
10h 03m
Waning Crescent, 0% of the Moon is Illuminated
Jan 11
Waning Crescent
Jan 11
New
Jan 18
First Quarter
Jan 26
Full
Feb 3
Last Quarter

Hourly Weather History & Observations

Time (EST) Temp. Dew Point Humidity Pressure Visibility Wind Dir Wind Speed Gust Speed Precip Events Conditions
12:15 AM 54.7 °F 36.3 °F 50% 30.40 in 10.0 mi ENE 6.9 mph - N/A   Mostly Cloudy
12:35 AM 54.5 °F 37.2 °F 52% 30.39 in 10.0 mi ENE 5.8 mph - N/A   Overcast
12:55 AM 54.0 °F 38.5 °F 56% 30.38 in 10.0 mi NE 6.9 mph - N/A   Overcast
1:15 AM 53.6 °F 39.6 °F 59% 30.37 in 10.0 mi ENE 9.2 mph - N/A   Mostly Cloudy
1:35 AM 53.8 °F 41.2 °F 62% 30.37 in 10.0 mi ENE 10.4 mph - N/A   Overcast
1:55 AM 53.6 °F 42.3 °F 65% 30.36 in 10.0 mi ENE 8.1 mph - N/A   Mostly Cloudy
2:15 AM 53.2 °F 43.0 °F 68% 30.36 in 10.0 mi ENE 8.1 mph - N/A   Mostly Cloudy
2:35 AM 53.1 °F 44.2 °F 72% 30.34 in 10.0 mi East 9.2 mph - N/A   Mostly Cloudy
2:55 AM 52.7 °F 45.0 °F 75% 30.34 in 10.0 mi ENE 6.9 mph - N/A   Scattered Clouds
3:15 AM 52.7 °F 45.7 °F 77% 30.34 in 10.0 mi ENE 4.6 mph - N/A   Clear
3:35 AM 52.3 °F 45.9 °F 79% 30.34 in 10.0 mi ENE 4.6 mph - N/A   Scattered Clouds
3:55 AM 52.3 °F 46.4 °F 80% 30.33 in 10.0 mi ENE 4.6 mph - N/A   Mostly Cloudy
4:15 AM 52.7 °F 46.8 °F 80% 30.32 in 10.0 mi ENE 5.8 mph - N/A   Mostly Cloudy
4:35 AM 52.3 °F 47.3 °F 83% 30.31 in 10.0 mi ENE 6.9 mph - N/A   Scattered Clouds
4:55 AM 52.7 °F 47.5 °F 82% 30.31 in 10.0 mi ENE 4.6 mph - N/A   Mostly Cloudy
5:15 AM 52.9 °F 48.2 °F 84% 30.30 in 10.0 mi ENE 4.6 mph - N/A   Scattered Clouds
5:35 AM 52.9 °F 48.6 °F 85% 30.30 in 10.0 mi ENE 3.5 mph - N/A   Mostly Cloudy
5:55 AM 53.1 °F 48.7 °F 85% 30.30 in 10.0 mi NE 3.5 mph - N/A   Mostly Cloudy
6:15 AM 53.2 °F 49.1 °F 86% 30.31 in 10.0 mi Calm Calm - N/A   Overcast
6:35 AM 53.2 °F 49.1 °F 86% 30.32 in 7.0 mi Calm Calm - N/A Rain Heavy Rain
6:55 AM 52.3 °F 50.2 °F 92% 30.32 in 10.0 mi Calm Calm - N/A Rain Light Rain
7:15 AM 52.2 °F 50.7 °F 95% 30.32 in 5.0 mi Calm Calm - N/A   Heavy Drizzle
7:35 AM 51.8 °F 50.7 °F 96% 30.32 in 7.0 mi NE 3.5 mph - N/A   Mostly Cloudy
7:55 AM 51.4 °F 50.2 °F 95% 30.31 in 7.0 mi NE 4.6 mph - N/A   Mostly Cloudy
8:15 AM 51.4 °F 50.4 °F 96% 30.32 in 10.0 mi NE 3.5 mph - N/A   Scattered Clouds
8:35 AM 52.2 °F 50.5 °F 94% 30.32 in 10.0 mi NE 3.5 mph - N/A   Scattered Clouds
8:55 AM 52.7 °F 50.9 °F 94% 30.32 in 10.0 mi NE 3.5 mph - N/A   Mostly Cloudy
9:15 AM 52.7 °F 50.9 °F 94% 30.32 in 10.0 mi Calm Calm - N/A   Overcast
9:35 AM 53.1 °F 50.9 °F 92% 30.31 in 10.0 mi Calm Calm - N/A   Overcast
9:55 AM 54.5 °F 51.4 °F 89% 30.31 in 10.0 mi Calm Calm - N/A   Mostly Cloudy
10:15 AM 55.0 °F 51.8 °F 89% 30.31 in 10.0 mi Calm Calm - N/A   Mostly Cloudy
10:35 AM 55.6 °F 52.2 °F 88% 30.30 in 10.0 mi ENE 4.6 mph - N/A   Scattered Clouds
10:55 AM 56.8 °F 53.1 °F 87% 30.30 in 10.0 mi Calm Calm - N/A   Scattered Clouds
11:15 AM 57.6 °F 54.0 °F 88% 30.29 in 10.0 mi Calm Calm - N/A   Mostly Cloudy
11:35 AM 58.6 °F 54.9 °F 87% 30.28 in 10.0 mi Calm Calm - N/A   Mostly Cloudy
11:55 AM 60.1 °F 56.3 °F 87% 30.27 in 10.0 mi Calm Calm - N/A   Mostly Cloudy
12:15 PM 61.7 °F 56.7 °F 84% 30.26 in 10.0 mi Calm Calm - N/A   Scattered Clouds
12:55 PM 68.0 °F 60.8 °F 78% 30.23 in 10.0 mi Calm Calm - N/A   Clear
1:15 PM 68.9 °F 61.9 °F 78% 30.22 in 10.0 mi Calm Calm - N/A   Scattered Clouds
1:35 PM 69.1 °F 62.6 °F 80% 30.21 in 10.0 mi Calm Calm - N/A   Mostly Cloudy
1:55 PM 70.9 °F 62.8 °F 75% 30.21 in 10.0 mi SSW 4.6 mph - N/A   Scattered Clouds
2:15 PM 71.8 °F 62.6 °F 73% 30.20 in 10.0 mi Calm Calm - N/A   Scattered Clouds
3:15 PM 72.7 °F 62.2 °F 70% 30.19 in 10.0 mi West 4.6 mph - N/A   Mostly Cloudy
3:35 PM 72.3 °F 62.8 °F 72% 30.19 in 10.0 mi West 3.5 mph - N/A   Scattered Clouds
3:55 PM 72.1 °F 62.4 °F 71% 30.18 in 10.0 mi SSW 4.6 mph - N/A   Clear
4:15 PM 72.9 °F 61.7 °F 68% 30.18 in 10.0 mi SW 4.6 mph - N/A   Clear
4:35 PM 72.0 °F 62.1 °F 71% 30.18 in 10.0 mi Calm Calm - N/A   Clear
4:55 PM 71.6 °F 61.9 °F 71% 30.18 in 10.0 mi Calm Calm - N/A   Clear
5:15 PM 68.7 °F 62.6 °F 81% 30.19 in 10.0 mi Calm Calm - N/A   Scattered Clouds
5:35 PM 67.3 °F 62.2 °F 84% 30.19 in 10.0 mi Calm Calm - N/A   Scattered Clouds
5:55 PM 65.3 °F 61.7 °F 88% 30.19 in 10.0 mi Calm Calm - N/A   Scattered Clouds
6:15 PM 63.7 °F 61.5 °F 93% 30.19 in 10.0 mi Calm Calm - N/A   Mostly Cloudy
6:35 PM 64.6 °F 61.5 °F 90% 30.19 in 10.0 mi Calm Calm - N/A   Scattered Clouds
6:55 PM 62.1 °F 60.4 °F 94% 30.19 in 10.0 mi Calm Calm - N/A   Clear
7:15 PM 62.4 °F 60.8 °F 94% 30.19 in 10.0 mi Calm Calm - N/A   Clear
7:35 PM 61.5 °F 59.9 °F 94% 30.19 in 10.0 mi Calm Calm - N/A   Clear
7:55 PM 62.6 °F 61.0 °F 94% 30.19 in 10.0 mi South 3.5 mph - N/A   Clear
8:15 PM 61.3 °F 60.1 °F 96% 30.18 in 10.0 mi Calm Calm - N/A   Clear
8:35 PM 60.6 °F 59.4 °F 96% 30.17 in 7.0 mi South 3.5 mph - N/A   Clear
8:55 PM 61.0 °F 60.1 °F 97% 30.17 in 10.0 mi South 5.8 mph - N/A   Clear
9:15 PM 60.1 °F 59.2 °F 97% 30.17 in 7.0 mi SSW 4.6 mph - N/A   Clear
9:35 PM 60.1 °F 59.4 °F 97% 30.18 in 7.0 mi SSW 3.5 mph - N/A   Clear
9:55 PM 59.9 °F 59.0 °F 97% 30.18 in 7.0 mi SSW 3.5 mph - N/A   Clear
10:15 PM 59.0 °F 58.3 °F 97% 30.19 in 7.0 mi Calm Calm - N/A   Clear
10:35 PM 58.5 °F 57.7 °F 97% 30.19 in 3.0 mi Calm Calm - N/A   Mist
10:55 PM 56.5 °F 55.8 °F 97% 30.18 in 0.5 mi Calm Calm - N/A Fog Fog
11:15 PM 57.7 °F 57.4 °F 99% 30.18 in 7.0 mi SSW 3.5 mph - N/A   Clear
11:35 PM 57.2 °F 56.8 °F 99% 30.18 in 7.0 mi SW 3.5 mph - N/A   Clear
11:55 PM 57.7 °F 57.4 °F 99% 30.17 in 7.0 mi SSW 3.5 mph - N/A   Clear